SCP
0 0 0 0 0 0 1 2 1 0 0 3 2 2 1 1 1 0 0 0 0 -0 0 0 0 0 0 0 0 0 0 0
0 0 0 0 0 1 2 2 2 1 0 3 1 1 1 1 1 1 1 1 1 0 0 0 0 0 0 0 0 0 0 0
0 0 0 0 0 1 2 2 3 2 1 2 2 1 1 1 1 1 1 1 1 0 0 0 0 0 0 0 0 0 0 0
0 0 0 0 0 0 1 5 2 2 1 3 3 1 2 1 1 1 2 1 3 2 1 1 0 0 0 0 0 0 0 0
0 0 0 0 0 0 2 5 3 4 3 3 4 3 3 2 2 3 1 3 3 2 1 1 1 0 1 0 1 0 0 0
0 0 0 0 0 1 1 2 6 4 6 4 6 3 3 2 2 2 2 2 2 2 2 2 2 3 2 2 1 1 0 0
0 0 0 0 0 0 1 4 5 7 7 6 4 7 5 4 2 2 2 2 3 4 2 2 4 3 3 2 1 1 1 0
0 0 0 0 0 0 1 3 8 10 9 9 7 5 5 4 4 2 3 2 2 6 2 3 6 3 3 2 1 1 1 1
0 0 0 0 0 0 1 2 11 11 12 8 8 6 5 5 4 4 3 4 3 2 3 6 3 2 2 2 2 2 1 1
0 0 0 0 0 1 1 1 3 7 7 9 7 7 5 5 6 4 6 5 4 3 3 3 3 1 2 2 2 1 3 2
0 0 0 0 0 1 1 0 1 2 5 6 7 5 4 4 5 5 4 5 5 4 3 2 2 3 3 2 5 2 2 1
0 0 0 0 0 0 1 1 1 1 2 6 6 6 6 4 7 6 4 5 6 5 2 2 2 4 2 4 5 4 4 2
0 0 0 0 0 0 1 1 1 1 0 1 3 4 5 6 5 5 8 11 10 7 5 3 3 3 3 3 3 5 4 3
0 0 0 0 0 0 0 1 1 2 3 3 2 4 4 6 5 6 5 4 8 8 6 5 5 4 5 5 8 5 6 4
0 0 0 0 0 0 0 0 0 1 1 2 3 3 4 4 6 6 7 7 6 10 7 7 6 6 6 10 8 7 7 6
0 0 0 0 0 0 0 0 0 1 1 0 1 1 3 4 4 6 6 7 6 5 10 9 7 7 9 11 10 11 10 6
0 0 0 0 0 0 0 0 0 0 0 1 1 1 1 3 4 6 7 8 8 5 6 7 6 7 10 11 10 8 10 8
0 0 0 0 0 0 0 0 0 0 0 1 0 1 1 2 4 5 6 6 5 6 6 6 6 10 14 14 12 7 10 10
0 0 0 0 0 0 0 0 0 0 0 0 0 0 2 1 4 4 6 5 5 7 7 7 7 12 16 19 12 9 6 4
0 0 0 0 0 0 0 0 0 0 0 0 0 0 2 2 2 4 3 5 4 5 3 8 9 9 7 8 7 5 4 5
Wind_Speed_500mb
18 15 15 23 42 42 49 47 39 46 49 44 50 53 53 55 54 53 49 43 31 29 39 41 39 36 32 30 27 23 18 9
31 16 25 25 33 33 45 49 49 44 49 55 45 54 56 57 58 55 53 50 42 38 42 39 43 40 36 33 30 25 21 20
42 34 34 43 33 43 20 46 49 45 53 46 52 41 53 54 52 57 57 58 53 48 42 35 40 45 41 38 32 28 25 22
48 48 48 43 46 34 63 31 46 41 42 52 51 47 49 51 54 58 64 60 59 58 52 46 40 42 42 43 37 30 33 27
41 46 51 52 48 49 27 58 54 48 48 61 47 59 49 65 57 62 65 69 68 72 61 61 50 44 44 37 43 42 40 25
29 34 41 47 33 25 42 38 52 56 58 54 61 60 68 65 67 66 83 72 76 73 67 72 66 56 51 51 48 46 44 36
36 33 32 27 29 39 37 34 53 56 62 65 64 65 68 65 70 77 78 74 83 81 77 68 66 64 61 68 61 57 46 36
35 39 31 27 32 36 44 35 41 54 59 63 61 67 77 75 74 76 78 75 82 90 79 77 75 70 64 65 62 54 49 40
38 40 38 42 27 24 30 42 35 54 53 61 65 67 74 77 74 67 72 76 78 76 88 78 73 75 75 66 60 56 53 50
36 36 34 38 43 40 40 43 47 48 60 68 70 70 74 77 81 80 68 80 79 78 85 86 76 72 71 68 72 70 65 57
24 26 35 37 36 34 39 32 36 50 55 62 64 64 64 64 71 72 87 91 91 89 77 76 82 82 80 81 77 76 74 69
21 22 21 31 18 40 39 35 33 27 40 57 63 74 80 79 73 77 74 82 88 93 71 66 94 91 90 87 80 68 75 70
33 39 33 39 36 34 28 22 22 28 38 43 60 75 73 77 80 78 83 91 97 95 86 86 89 95 83 85 80 83 94 81
29 31 32 35 33 33 34 34 33 32 30 43 48 63 82 80 79 76 82 85 85 95 88 88 89 92 98 90 82 77 87 84
18 28 37 41 41 40 37 37 43 48 51 51 48 60 64 89 83 82 88 85 81 94 90 89 94 90 97 104 92 85 80 76
17 25 30 36 39 44 41 45 48 49 51 63 63 73 68 74 95 90 88 92 92 94 98 97 98 101 102 91 106 98 94 83
29 38 35 36 38 41 45 50 49 53 56 55 62 69 77 76 80 93 99 90 88 86 81 102 114 108 106 95 102 97 91 84
24 35 30 32 41 44 39 50 55 53 61 63 63 64 69 72 81 85 96 97 82 99 86 97 101 112 102 90 94 81 71 66
34 36 38 36 38 41 53 56 59 52 64 62 60 69 67 70 70 86 95 95 95 89 98 98 110 102 104 96 89 83 73 56
42 39 43 44 46 46 47 50 49 60 63 65 62 71 70 61 72 77 90 92 102 112 94 97 98 99 83 90 81 74 63 60
Wind_Direction_500mb
246 257 250 258 194 191 199 205 202 190 181 212 207 205 206 206 215 219 218 217 218 212 221 216 217 214 214 216 219 222 231 221
288 293 274 262 260 213 202 209 203 192 180 213 220 217 212 216 216 220 218 213 201 216 222 225 221 220 220 222 228 229 234 226
273 264 249 266 266 236 242 217 201 196 181 209 218 220 216 219 220 220 220 208 206 215 206 230 224 221 219 227 228 229 242 241
252 251 257 246 255 261 210 214 231 230 210 192 214 219 211 224 216 223 221 216 207 215 209 209 234 221 222 222 224 217 240 245
252 248 246 247 248 252 235 205 221 230 229 202 210 219 209 219 220 218 226 216 210 217 222 211 217 220 213 232 220 220 229 225
263 260 250 243 250 238 237 226 218 231 238 222 207 216 211 220 224 225 225 218 211 220 223 223 215 217 205 219 221 219 230 220
266 268 269 254 254 259 245 232 230 235 240 239 224 214 215 215 224 223 225 222 217 216 223 224 217 210 216 215 221 220 225 226
261 260 261 273 259 244 253 241 235 228 237 240 235 226 220 221 222 227 231 230 221 222 216 221 218 213 219 220 221 229 224 223
246 254 255 258 258 271 265 246 242 233 223 228 231 231 226 222 227 226 228 232 231 226 226 210 216 218 217 226 225 225 229 217
219 231 239 251 267 266 263 266 244 244 235 237 238 241 232 232 226 222 221 227 234 231 226 222 215 228 229 232 236 229 224 222
272 247 238 243 240 250 254 260 272 247 244 238 239 243 238 233 233 232 226 228 233 232 229 223 218 232 233 229 224 223 223 224
9 336 339 11 306 262 252 273 271 265 251 245 238 239 238 232 224 230 227 223 222 230 224 221 218 221 225 225 219 220 229 237
337 341 332 323 331 320 310 304 298 293 273 269 257 247 247 244 239 229 225 219 219 227 234 234 226 216 230 231 235 230 231 230
353 341 326 323 322 310 317 312 308 298 303 279 270 259 248 247 242 237 237 233 220 230 232 232 230 228 223 230 226 230 229 233
328 316 317 318 316 325 319 311 314 307 305 294 288 270 264 250 246 240 235 232 233 226 228 230 226 226 221 222 225 225 225 230
301 292 290 296 301 298 311 311 307 304 300 296 292 269 270 261 249 242 239 237 235 239 232 228 224 225 224 222 226 222 226 226
256 277 265 270 288 285 298 301 297 296 287 296 291 289 265 260 252 246 240 239 241 238 241 242 227 224 226 223 222 223 222 225
305 330 319 297 290 286 284 294 297 289 290 287 285 294 288 262 252 247 241 236 237 232 228 242 239 225 221 216 219 218 211 212
310 298 293 294 295 286 283 279 289 286 294 292 288 284 299 276 263 246 243 237 229 242 234 234 241 228 218 212 208 204 205 210
324 323 310 303 296 299 299 298 287 287 286 293 291 288 304 286 267 254 242 237 232 224 233 235 232 233 216 215 206 195 200 210
Wind_Speed_850mb
18 15 15 23 42 42 49 47 39 46 49 44 50 53 53 55 54 53 49 43 31 29 39 41 39 36 32 30 27 23 18 9
31 16 25 25 33 33 45 49 49 44 49 55 45 54 56 57 58 55 53 50 42 38 42 39 43 40 36 33 30 25 21 20
42 34 34 43 33 43 20 46 49 45 53 46 52 41 53 54 52 57 57 58 53 48 42 35 40 45 41 38 32 28 25 22
48 48 48 43 46 34 63 31 46 41 42 52 51 47 49 51 54 58 64 60 59 58 52 46 40 42 42 43 37 30 33 27
41 46 51 52 48 49 27 58 54 48 48 61 47 59 49 65 57 62 65 69 68 72 61 61 50 44 44 37 43 42 40 25
29 34 41 47 33 25 42 38 52 56 58 54 61 60 68 65 67 66 83 72 76 73 67 72 66 56 51 51 48 46 44 36
36 33 32 27 29 39 37 34 53 56 62 65 64 65 68 65 70 77 78 74 83 81 77 68 66 64 61 68 61 57 46 36
35 39 31 27 32 36 44 35 41 54 59 63 61 67 77 75 74 76 78 75 82 90 79 77 75 70 64 65 62 54 49 40
38 40 38 42 27 24 30 42 35 54 53 61 65 67 74 77 74 67 72 76 78 76 88 78 73 75 75 66 60 56 53 50
36 36 34 38 43 40 40 43 47 48 60 68 70 70 74 77 81 80 68 80 79 78 85 86 76 72 71 68 72 70 65 57
24 26 35 37 36 34 39 32 36 50 55 62 64 64 64 64 71 72 87 91 91 89 77 76 82 82 80 81 77 76 74 69
21 22 21 31 18 40 39 35 33 27 40 57 63 74 80 79 73 77 74 82 88 93 71 66 94 91 90 87 80 68 75 70
33 39 33 39 36 34 28 22 22 28 38 43 60 75 73 77 80 78 83 91 97 95 86 86 89 95 83 85 80 83 94 81
29 31 32 35 33 33 34 34 33 32 30 43 48 63 82 80 79 76 82 85 85 95 88 88 89 92 98 90 82 77 87 84
18 28 37 41 41 40 37 37 43 48 51 51 48 60 64 89 83 82 88 85 81 94 90 89 94 90 97 104 92 85 80 76
17 25 30 36 39 44 41 45 48 49 51 63 63 73 68 74 95 90 88 92 92 94 98 97 98 101 102 91 106 98 94 83
29 38 35 36 38 41 45 50 49 53 56 55 62 69 77 76 80 93 99 90 88 86 81 102 114 108 106 95 102 97 91 84
24 35 30 32 41 44 39 50 55 53 61 63 63 64 69 72 81 85 96 97 82 99 86 97 101 112 102 90 94 81 71 66
34 36 38 36 38 41 53 56 59 52 64 62 60 69 67 70 70 86 95 95 95 89 98 98 110 102 104 96 89 83 73 56
42 39 43 44 46 46 47 50 49 60 63 65 62 71 70 61 72 77 90 92 102 112 94 97 98 99 83 90 81 74 63 60
Wind_Direction_850mb
246 257 250 258 194 191 199 205 202 190 181 212 207 205 206 206 215 219 218 217 218 212 221 216 217 214 214 216 219 222 231 221
288 293 274 262 260 213 202 209 203 192 180 213 220 217 212 216 216 220 218 213 201 216 222 225 221 220 220 222 228 229 234 226
273 264 249 266 266 236 242 217 201 196 181 209 218 220 216 219 220 220 220 208 206 215 206 230 224 221 219 227 228 229 242 241
252 251 257 246 255 261 210 214 231 230 210 192 214 219 211 224 216 223 221 216 207 215 209 209 234 221 222 222 224 217 240 245
252 248 246 247 248 252 235 205 221 230 229 202 210 219 209 219 220 218 226 216 210 217 222 211 217 220 213 232 220 220 229 225
263 260 250 243 250 238 237 226 218 231 238 222 207 216 211 220 224 225 225 218 211 220 223 223 215 217 205 219 221 219 230 220
266 268 269 254 254 259 245 232 230 235 240 239 224 214 215 215 224 223 225 222 217 216 223 224 217 210 216 215 221 220 225 226
261 260 261 273 259 244 253 241 235 228 237 240 235 226 220 221 222 227 231 230 221 222 216 221 218 213 219 220 221 229 224 223
246 254 255 258 258 271 265 246 242 233 223 228 231 231 226 222 227 226 228 232 231 226 226 210 216 218 217 226 225 225 229 217
219 231 239 251 267 266 263 266 244 244 235 237 238 241 232 232 226 222 221 227 234 231 226 222 215 228 229 232 236 229 224 222
272 247 238 243 240 250 254 260 272 247 244 238 239 243 238 233 233 232 226 228 233 232 229 223 218 232 233 229 224 223 223 224
9 336 339 11 306 262 252 273 271 265 251 245 238 239 238 232 224 230 227 223 222 230 224 221 218 221 225 225 219 220 229 237
337 341 332 323 331 320 310 304 298 293 273 269 257 247 247 244 239 229 225 219 219 227 234 234 226 216 230 231 235 230 231 230
353 341 326 323 322 310 317 312 308 298 303 279 270 259 248 247 242 237 237 233 220 230 232 232 230 228 223 230 226 230 229 233
328 316 317 318 316 325 319 311 314 307 305 294 288 270 264 250 246 240 235 232 233 226 228 230 226 226 221 222 225 225 225 230
301 292 290 296 301 298 311 311 307 304 300 296 292 269 270 261 249 242 239 237 235 239 232 228 224 225 224 222 226 222 226 226
256 277 265 270 288 285 298 301 297 296 287 296 291 289 265 260 252 246 240 239 241 238 241 242 227 224 226 223 222 223 222 225
305 330 319 297 290 286 284 294 297 289 290 287 285 294 288 262 252 247 241 236 237 232 228 242 239 225 221 216 219 218 211 212
310 298 293 294 295 286 283 279 289 286 294 292 288 284 299 276 263 246 243 237 229 242 234 234 241 228 218 212 208 204 205 210
324 323 310 303 296 299 299 298 287 287 286 293 291 288 304 286 267 254 242 237 232 224 233 235 232 233 216 215 206 195 200 210